Provincetown, MA

10:32 PM EDT on April 25, 2017 (GMT -0400)
Provincetown Municipal

Weather History for KPVC - September, 2013

Change the Weather History Date:

Friday, September 13, 2013

  Actual Average Record
Temperature  
Mean Temperature 68 °F -  
Max Temperature 73 °F 69 °F 82 °F (1952)
Min Temperature 62 °F 57 °F 42 °F (1954)
Cooling Degree Days 2    
Growing Degree Days 18 (Base 50)    
Moisture  
Dew Point 64 °F    
Average Humidity 89    
Maximum Humidity 100    
Minimum Humidity 73    
Precipitation  
Precipitation 0.02 in - - ()
Sea Level Pressure  
Sea Level Pressure 29.65 in    
Wind  
Wind Speed 10 mph (WNW)    
Max Wind Speed 17 mph    
Max Gust Speed 22 mph    
Visibility 8 miles    
Events      
Averages and records for this station are not official NWS values.
T = Trace of Precipitation, MM = Missing Value Source: NWS Daily Summary

Daily Weather History Graph

Daily Weather History Graph

Search for Another Location

Airport or City:

Trip Planner

Search our weather history database for the weather conditions in past years. The results will help you decide how hot, cold, wet, or windy it might be!

Date:

Astronomy

Sep. 13, 2013 Rise Set
Actual Time 6:19 AM EDT 6:53 PM EDT
Civil Twilight 5:50 AM EDT 7:21 PM EDT
Nautical Twilight 5:17 AM EDT 7:54 PM EDT
Astronomical Twilight 4:43 AM EDT 8:28 PM EDT
Moon 2:44 PM EDT (9/13) No Moon Set
Length of Visible Light 13h 30m
Length of Day
12h 34m
First Quarter, 61% of the Moon is Illuminated
Sep 13
First Quarter
Sep 19
Full
Sep 26
Last Quarter
Oct 4
New
Oct 11
First Quarter

Hourly Weather History & Observations

Time (EDT) Temp. Dew Point Humidity Pressure Visibility Wind Dir Wind Speed Gust Speed Precip Events Conditions
12:15 AM 69.8 °F 66.2 °F 88% 29.71 in 10.0 mi SSW 15.0 mph 19.6 mph N/A   Mostly Cloudy
12:35 AM 68.0 °F 64.4 °F 88% 29.70 in 10.0 mi SSW 12.7 mph 16.1 mph N/A   Mostly Cloudy
12:55 AM 69.8 °F 64.4 °F 83% 29.69 in 10.0 mi SSW 12.7 mph 18.4 mph N/A   Mostly Cloudy
1:15 AM 68.0 °F 64.4 °F 88% 29.68 in 10.0 mi SW 13.8 mph - N/A   Partly Cloudy
1:35 AM 68.0 °F 66.2 °F 94% 29.67 in 10.0 mi SSW 11.5 mph - N/A   Partly Cloudy
1:55 AM 68.0 °F 66.2 °F 94% 29.67 in 10.0 mi SSW 12.7 mph - N/A   Mostly Cloudy
2:15 AM 69.8 °F 66.2 °F 88% 29.67 in 10.0 mi SW 15.0 mph - N/A   Mostly Cloudy
2:35 AM 68.0 °F 66.2 °F 94% 29.66 in 10.0 mi SW 12.7 mph 18.4 mph N/A   Mostly Cloudy
2:55 AM 68.0 °F 66.2 °F 94% 29.66 in 10.0 mi SW 12.7 mph - N/A   Overcast
3:15 AM 68.0 °F 66.2 °F 94% 29.65 in 10.0 mi SW 10.4 mph - N/A   Overcast
3:35 AM 68.0 °F 64.4 °F 88% 29.65 in 10.0 mi SSW 9.2 mph - N/A   Overcast
3:55 AM 68.0 °F 64.4 °F 88% 29.64 in 10.0 mi SSW 9.2 mph - N/A   Mostly Cloudy
4:15 AM 66.2 °F 64.4 °F 94% 29.64 in 10.0 mi SSW 8.1 mph - N/A   Mostly Cloudy
4:35 AM 68.0 °F 66.2 °F 94% 29.63 in 10.0 mi SSW 9.2 mph - N/A   Mostly Cloudy
4:55 AM 68.0 °F 66.2 °F 94% 29.63 in 10.0 mi South 8.1 mph - N/A   Overcast
5:15 AM 68.0 °F 66.2 °F 94% 29.63 in 10.0 mi South 9.2 mph - N/A   Overcast
5:35 AM 69.8 °F 66.2 °F 88% 29.63 in 10.0 mi South 8.1 mph - N/A   Overcast
5:55 AM 69.8 °F 66.2 °F 88% 29.62 in 10.0 mi South 8.1 mph - N/A   Overcast
6:15 AM 68.0 °F 66.2 °F 94% 29.63 in 10.0 mi South 10.4 mph - N/A   Overcast
6:35 AM 69.8 °F 66.2 °F 88% 29.63 in 10.0 mi South 8.1 mph - N/A   Overcast
6:55 AM 69.8 °F 66.2 °F 88% 29.63 in 8.0 mi SSW 9.2 mph - N/A   Overcast
7:15 AM 68.0 °F 66.2 °F 94% 29.64 in 7.0 mi SW 8.1 mph - N/A   Overcast
7:35 AM 68.0 °F 66.2 °F 94% 29.64 in 5.0 mi SW 9.2 mph - N/A   Overcast
7:55 AM 68.0 °F 66.2 °F 94% 29.64 in 3.0 mi WSW 6.9 mph - N/A   Overcast
8:15 AM 66.2 °F 64.4 °F 94% 29.63 in 2.0 mi WSW 6.9 mph - N/A   Overcast
8:35 AM 68.0 °F 66.2 °F 94% 29.64 in 2.0 mi WSW 3.5 mph - N/A   Overcast
8:55 AM 68.0 °F 66.2 °F 94% 29.64 in 1.8 mi West 4.6 mph - N/A   Overcast
9:15 AM 68.0 °F 66.2 °F 94% 29.63 in 0.2 mi West 3.5 mph - N/A   Overcast
9:35 AM 68.0 °F 68.0 °F 100% 29.64 in 0.2 mi Calm Calm - N/A   Overcast
9:55 AM 68.0 °F 66.2 °F 94% 29.63 in 0.5 mi Calm Calm - N/A   Overcast
10:15 AM 68.0 °F 66.2 °F 94% 29.63 in 1.0 mi NW 3.5 mph - N/A   Overcast
10:35 AM 68.0 °F 68.0 °F 100% 29.63 in 4.0 mi WNW 3.5 mph - N/A   Overcast
10:55 AM 68.0 °F 66.2 °F 94% 29.62 in 5.0 mi NW 5.8 mph - N/A   Mostly Cloudy
11:15 AM 66.2 °F 64.4 °F 94% 29.63 in 4.0 mi NW 5.8 mph - N/A   Overcast
11:35 AM 66.2 °F 66.2 °F 100% 29.63 in 7.0 mi NNW 6.9 mph - N/A   Overcast
11:55 AM 66.2 °F 64.4 °F 94% 29.62 in 7.0 mi NNW 5.8 mph - N/A   Overcast
12:15 PM 66.2 °F 66.2 °F 100% 29.62 in 6.0 mi North 5.8 mph - 0.01 in   Overcast
12:35 PM 66.2 °F 66.2 °F 100% 29.62 in 10.0 mi NNE 6.9 mph - 0.01 in   Overcast
12:55 PM 69.8 °F 66.2 °F 88% 29.61 in 10.0 mi NE 5.8 mph - 0.01 in   Partly Cloudy
1:15 PM 69.8 °F 64.4 °F 83% 29.60 in 10.0 mi ENE 8.1 mph - N/A   Scattered Clouds
1:35 PM 68.0 °F 64.4 °F 88% 29.61 in 10.0 mi ENE 5.8 mph - N/A   Mostly Cloudy
1:55 PM 69.8 °F 66.2 °F 88% 29.60 in 10.0 mi ENE 5.8 mph - N/A   Mostly Cloudy
2:15 PM 71.6 °F 66.2 °F 83% 29.60 in 10.0 mi ENE 8.1 mph - N/A   Scattered Clouds
2:35 PM 71.6 °F 64.4 °F 78% 29.60 in 10.0 mi NE 5.8 mph - N/A   Partly Cloudy
2:55 PM 71.6 °F 64.4 °F 78% 29.60 in 10.0 mi NE 5.8 mph - N/A   Clear
3:15 PM 71.6 °F 64.4 °F 78% 29.61 in 10.0 mi NE 5.8 mph - N/A   Clear
3:35 PM 71.6 °F 64.4 °F 78% 29.60 in 10.0 mi East 4.6 mph - N/A   Clear
3:55 PM 73.4 °F 64.4 °F 73% 29.59 in 10.0 mi East 4.6 mph - N/A   Clear
4:15 PM 71.6 °F 64.4 °F 78% 29.59 in 10.0 mi NE 5.8 mph - N/A   Clear
4:35 PM 73.4 °F 64.4 °F 73% 29.60 in 10.0 mi ENE 4.6 mph - N/A   Clear
4:55 PM 73.4 °F 64.4 °F 73% 29.60 in 10.0 mi SSE 6.9 mph - N/A   Mostly Cloudy
5:15 PM 71.6 °F 64.4 °F 78% 29.60 in 10.0 mi SSW 5.8 mph - N/A   Partly Cloudy
5:35 PM 71.6 °F 62.6 °F 73% 29.61 in 10.0 mi SSW 4.6 mph - N/A   Mostly Cloudy
5:55 PM 69.8 °F 64.4 °F 83% 29.62 in 10.0 mi SSW 5.8 mph - 0.01 in   Mostly Cloudy
6:15 PM 68.0 °F 64.4 °F 88% 29.63 in 10.0 mi NW 5.8 mph - N/A   Overcast
6:35 PM 68.0 °F 64.4 °F 88% 29.64 in 10.0 mi NNW 8.1 mph - N/A   Overcast
6:55 PM 66.2 °F 64.4 °F 94% 29.64 in 10.0 mi NNW 4.6 mph - N/A   Overcast
7:15 PM 66.2 °F 62.6 °F 88% 29.65 in 10.0 mi NW 5.8 mph - N/A   Mostly Cloudy
7:35 PM 66.2 °F 62.6 °F 88% 29.66 in 10.0 mi NW 8.1 mph - N/A   Mostly Cloudy
7:55 PM 68.0 °F 62.6 °F 83% 29.68 in 10.0 mi NNW 8.1 mph - N/A   Mostly Cloudy
8:15 PM 66.2 °F 62.6 °F 88% 29.69 in 10.0 mi NNW 17.3 mph 21.9 mph N/A   Overcast
8:35 PM 64.4 °F 60.8 °F 88% 29.70 in 10.0 mi North 13.8 mph - N/A   Scattered Clouds
8:55 PM 64.4 °F 60.8 °F 88% 29.71 in 10.0 mi NNW 12.7 mph 19.6 mph N/A   Clear
9:15 PM 62.6 °F 60.8 °F 94% 29.71 in 10.0 mi NNW 15.0 mph 20.7 mph N/A   Scattered Clouds
9:35 PM 62.6 °F 59.0 °F 88% 29.72 in 10.0 mi NNW 13.8 mph 19.6 mph N/A   Mostly Cloudy
9:55 PM 62.6 °F 59.0 °F 88% 29.72 in 10.0 mi NNW 11.5 mph 18.4 mph N/A   Scattered Clouds
10:15 PM 62.6 °F 59.0 °F 88% 29.72 in 10.0 mi North 15.0 mph 19.6 mph N/A   Clear
10:35 PM 62.6 °F 59.0 °F 88% 29.73 in 10.0 mi North 12.7 mph - N/A   Clear
10:55 PM 62.6 °F 59.0 °F 88% 29.73 in 10.0 mi North 11.5 mph 17.3 mph N/A   Partly Cloudy
11:15 PM 62.6 °F 59.0 °F 88% 29.73 in 10.0 mi NNW 11.5 mph - N/A   Partly Cloudy
11:35 PM 62.6 °F 57.2 °F 82% 29.73 in 10.0 mi NNW 12.7 mph 17.3 mph N/A   Mostly Cloudy
11:55 PM 62.6 °F 59.0 °F 88% 29.74 in 10.0 mi NNW 13.8 mph - N/A   Overcast